CMA579 LFPG-LTAC

Flight info

Callsign CMA579
Flight time N/A
Altitude 33000
Route LANVI DCT BEGAR DCT TRA DCT GAMSA DCT GEDSO DCT VEKEN DCT MAGAM DCT TUVAR DCT ETIDA Q9 RIXEN UA17 YAVRU UA4 SALGO
Aircraft B77L/H-SDE1E2E3FGHIJ2J3J4J5M1RWXY/LB1D1

Departure

Time N/A
Airport Charles de Gaulle International Airport (LFPG)

Arrival

Time 2026-04-27 11:20
Airport Esenboğa International Airport (LTAC)
Time Latitude Longitude Altitude Speed Heading
2026-04-27 08:50 47.66777 8.52770 33216 ft 497 kts 107°
2026-04-27 08:50 47.65701 8.57657 33211 ft 497 kts 106°
2026-04-27 08:51 47.63555 8.67433 33218 ft 497 kts 107°
2026-04-27 08:51 47.61366 8.77164 33217 ft 497 kts 107°
2026-04-27 08:52 47.59152 8.86837 33221 ft 498 kts 107°
2026-04-27 08:52 47.56915 8.96550 33223 ft 498 kts 107°
2026-04-27 08:53 47.54685 9.06197 33214 ft 498 kts 107°
2026-04-27 08:53 47.52438 9.15883 33222 ft 498 kts 107°
2026-04-27 08:54 47.50178 9.25579 33225 ft 498 kts 107°
2026-04-27 08:54 47.47915 9.35250 33217 ft 497 kts 107°
2026-04-27 08:55 47.45641 9.44924 33243 ft 497 kts 107°
2026-04-27 08:55 47.43365 9.54569 33236 ft 497 kts 108°
2026-04-27 08:56 47.41094 9.64231 33249 ft 497 kts 106°
2026-04-27 08:56 47.39528 9.74077 33243 ft 495 kts 99°
2026-04-27 08:57 47.37525 9.89049 33220 ft 495 kts 99°
2026-04-27 08:58 47.36147 9.99007 33223 ft 495 kts 99°
2026-04-27 08:58 47.34744 10.08962 33200 ft 496 kts 100°
2026-04-27 08:59 47.33329 10.18916 33193 ft 495 kts 100°
2026-04-27 08:59 47.31915 10.28803 33194 ft 495 kts 100°
2026-04-27 09:00 47.30490 10.38717 33176 ft 494 kts 100°
2026-04-27 09:00 47.29058 10.48619 33206 ft 493 kts 100°
2026-04-27 09:01 47.27618 10.58495 33190 ft 493 kts 100°
2026-04-27 09:01 47.26180 10.68313 33190 ft 492 kts 100°
2026-04-27 09:02 47.24730 10.78151 33206 ft 491 kts 101°
2026-04-27 09:02 47.23514 10.86340 33225 ft 491 kts 101°
2026-04-27 09:03 47.21803 10.97799 33223 ft 493 kts 101°
2026-04-27 09:03 47.20572 11.06007 33220 ft 494 kts 101°
2026-04-27 09:04 47.19081 11.15868 33230 ft 494 kts 101°
2026-04-27 09:04 47.17576 11.25758 33224 ft 494 kts 101°
2026-04-27 09:05 47.16076 11.35582 33201 ft 494 kts 101°
2026-04-27 09:05 47.14559 11.45432 33209 ft 494 kts 101°
2026-04-27 09:06 47.13033 11.55276 33211 ft 494 kts 101°
2026-04-27 09:06 47.11500 11.65120 33212 ft 494 kts 101°
2026-04-27 09:07 47.09968 11.74902 33191 ft 495 kts 101°
2026-04-27 09:07 47.08359 11.84753 33196 ft 496 kts 104°
2026-04-27 09:08 47.05792 11.94174 33198 ft 498 kts 115°
2026-04-27 09:08 47.02704 12.03185 33191 ft 498 kts 115°
2026-04-27 09:09 46.99599 12.12297 33181 ft 498 kts 115°
2026-04-27 09:09 46.96528 12.21390 33209 ft 498 kts 115°
2026-04-27 09:10 46.93484 12.30416 33217 ft 497 kts 115°
2026-04-27 09:10 46.90412 12.39485 33228 ft 497 kts 115°
2026-04-27 09:11 46.87330 12.48553 33206 ft 498 kts 115°
2026-04-27 09:11 46.84237 12.57620 33194 ft 498 kts 115°
2026-04-27 09:12 46.81141 12.66662 33171 ft 497 kts 115°
2026-04-27 09:12 46.78065 12.75610 33148 ft 498 kts 114°
2026-04-27 09:13 46.74952 12.84642 33157 ft 497 kts 114°
2026-04-27 09:13 46.71833 12.93657 33148 ft 498 kts 115°
2026-04-27 09:14 46.68726 13.02610 33142 ft 497 kts 115°
2026-04-27 09:14 46.65598 13.11594 33156 ft 497 kts 114°
2026-04-27 09:15 46.62459 13.20575 33167 ft 497 kts 115°
2026-04-27 09:15 46.59337 13.29483 33164 ft 496 kts 115°
2026-04-27 09:16 46.56243 13.38467 33168 ft 495 kts 111°
2026-04-27 09:16 46.53897 13.47814 33188 ft 491 kts 106°
2026-04-27 09:17 46.51668 13.57187 33176 ft 491 kts 106°
2026-04-27 09:17 46.49413 13.66502 33191 ft 492 kts 107°
2026-04-27 09:18 46.47118 13.75875 33185 ft 493 kts 107°
2026-04-27 09:18 46.44809 13.85254 33193 ft 493 kts 107°
2026-04-27 09:19 46.42492 13.94618 33198 ft 493 kts 107°
2026-04-27 09:19 46.40165 14.03982 33205 ft 493 kts 107°
2026-04-27 09:20 46.37833 14.13338 33226 ft 493 kts 107°
2026-04-27 09:20 46.35507 14.22628 33223 ft 494 kts 107°
2026-04-27 09:21 46.33156 14.31986 33229 ft 494 kts 107°
2026-04-27 09:21 46.30793 14.41348 33255 ft 494 kts 107°
2026-04-27 09:22 46.28427 14.50687 33235 ft 495 kts 107°
2026-04-27 09:22 46.26065 14.59973 33243 ft 496 kts 107°
2026-04-27 09:23 46.23672 14.69339 33253 ft 496 kts 107°
2026-04-27 09:23 46.21271 14.78701 33223 ft 497 kts 108°
2026-04-27 09:24 46.18862 14.88055 33229 ft 497 kts 108°
2026-04-27 09:24 46.16457 14.97359 33242 ft 497 kts 108°
2026-04-27 09:25 46.14032 15.06699 33239 ft 497 kts 108°
2026-04-27 09:25 46.11599 15.16036 33238 ft 497 kts 108°
2026-04-27 09:26 46.09157 15.25365 33234 ft 497 kts 108°
2026-04-27 09:26 46.06706 15.34696 33241 ft 498 kts 109°
2026-04-27 09:27 46.04247 15.44017 33233 ft 498 kts 109°
2026-04-27 09:27 46.01795 15.53278 33242 ft 498 kts 109°
2026-04-27 09:28 45.99321 15.62592 33229 ft 498 kts 109°
2026-04-27 09:28 45.96847 15.71886 33238 ft 497 kts 108°
2026-04-27 09:29 45.94588 15.81292 33245 ft 497 kts 106°
2026-04-27 09:29 45.92539 15.90314 33244 ft 497 kts 106°
2026-04-27 09:30 45.90366 15.99752 33267 ft 498 kts 107°
2026-04-27 09:30 45.88149 16.09185 33265 ft 498 kts 107°
2026-04-27 09:31 45.85915 16.18600 33264 ft 498 kts 107°
2026-04-27 09:31 45.83686 16.27948 33261 ft 499 kts 107°
2026-04-27 09:32 45.81434 16.37367 33263 ft 499 kts 107°
2026-04-27 09:32 45.79168 16.46806 33251 ft 499 kts 108°
2026-04-27 09:33 45.76911 16.56164 33248 ft 500 kts 108°
2026-04-27 09:33 45.74649 16.65509 33245 ft 500 kts 108°
2026-04-27 09:34 45.72357 16.74934 33237 ft 500 kts 108°
2026-04-27 09:34 45.70060 16.84343 33246 ft 500 kts 108°
2026-04-27 09:35 45.67771 16.93682 33249 ft 501 kts 108°
2026-04-27 09:35 45.65452 17.03097 33240 ft 501 kts 108°
2026-04-27 09:36 45.63131 17.12487 33250 ft 501 kts 109°
2026-04-27 09:36 45.60801 17.21875 33243 ft 501 kts 109°
2026-04-27 09:37 45.58462 17.31258 33242 ft 501 kts 109°
2026-04-27 09:37 45.56129 17.40578 33241 ft 501 kts 109°
2026-04-27 09:38 45.53776 17.49944 33241 ft 501 kts 109°
2026-04-27 09:38 45.51412 17.59311 33250 ft 501 kts 109°
2026-04-27 09:39 45.49058 17.68601 33253 ft 501 kts 109°
2026-04-27 09:39 45.46679 17.77952 33259 ft 502 kts 110°
2026-04-27 09:40 45.44300 17.87269 33253 ft 502 kts 110°
2026-04-27 09:40 45.41901 17.96624 33264 ft 503 kts 110°
2026-04-27 09:41 45.39613 18.05507 33258 ft 503 kts 110°
2026-04-27 09:41 45.37209 18.14813 33266 ft 503 kts 110°
2026-04-27 09:42 45.34778 18.24178 33250 ft 504 kts 110°
2026-04-27 09:42 45.32365 18.33439 33259 ft 504 kts 110°
2026-04-27 09:43 45.29922 18.42781 33253 ft 504 kts 110°
2026-04-27 09:43 45.27468 18.52127 33249 ft 504 kts 111°
2026-04-27 09:44 45.25009 18.61454 33252 ft 504 kts 111°
2026-04-27 09:44 45.22541 18.70775 33247 ft 504 kts 111°
2026-04-27 09:45 45.20079 18.80041 33249 ft 504 kts 111°
2026-04-27 09:45 45.17597 18.89347 33255 ft 504 kts 111°
2026-04-27 09:46 45.15110 18.98641 33246 ft 504 kts 111°
2026-04-27 09:46 45.12544 19.07894 33242 ft 504 kts 116°
2026-04-27 09:47 45.09169 19.16577 33243 ft 502 kts 122°
2026-04-27 09:47 45.05645 19.25027 33236 ft 502 kts 122°
2026-04-27 09:48 45.02115 19.33553 33242 ft 502 kts 122°
2026-04-27 09:48 44.98603 19.42086 33237 ft 502 kts 122°
2026-04-27 09:49 44.95088 19.50624 33243 ft 502 kts 122°
2026-04-27 09:49 44.92160 19.57717 33237 ft 503 kts 122°
2026-04-27 09:50 44.88633 19.66230 33233 ft 503 kts 122°
2026-04-27 09:50 44.85096 19.74742 33238 ft 503 kts 122°
2026-04-27 09:51 44.81549 19.83248 33225 ft 503 kts 122°
2026-04-27 09:51 44.78022 19.91683 33243 ft 503 kts 122°
2026-04-27 09:52 44.74460 20.00176 33248 ft 503 kts 122°
2026-04-27 09:52 44.70902 20.08636 33251 ft 503 kts 122°
2026-04-27 09:53 44.67328 20.17106 33257 ft 504 kts 122°
2026-04-27 09:53 44.63741 20.25583 33255 ft 504 kts 123°
2026-04-27 09:54 44.60168 20.34001 33250 ft 505 kts 123°
2026-04-27 09:54 44.56564 20.42468 33245 ft 505 kts 123°
2026-04-27 09:55 44.52948 20.50937 33241 ft 506 kts 123°
2026-04-27 09:55 44.47511 20.63625 33236 ft 506 kts 123°
2026-04-27 09:56 44.43880 20.72066 33229 ft 505 kts 122°
2026-04-27 09:56 44.40274 20.80425 33233 ft 504 kts 123°
2026-04-27 09:57 44.36648 20.88807 33241 ft 504 kts 123°
2026-04-27 09:57 44.33009 20.97194 33239 ft 503 kts 123°
2026-04-27 09:58 44.29369 21.05558 33233 ft 504 kts 123°
2026-04-27 09:58 44.25745 21.13862 33236 ft 504 kts 123°
2026-04-27 09:59 44.22092 21.22208 33231 ft 504 kts 123°
2026-04-27 09:59 44.18429 21.30550 33234 ft 504 kts 123°
2026-04-27 10:00 44.14753 21.38899 33236 ft 505 kts 123°
2026-04-27 10:00 44.11076 21.47228 33236 ft 505 kts 123°
2026-04-27 10:01 44.07409 21.55509 33236 ft 505 kts 123°
2026-04-27 10:01 44.03720 21.63816 33242 ft 503 kts 123°
2026-04-27 10:02 44.00041 21.72079 33241 ft 502 kts 123°
2026-04-27 10:02 43.96362 21.80314 33246 ft 500 kts 123°
2026-04-27 10:03 43.92688 21.88517 33261 ft 499 kts 123°
2026-04-27 10:03 43.89037 21.96644 33256 ft 498 kts 123°
2026-04-27 10:04 43.85366 22.04797 33261 ft 498 kts 123°
2026-04-27 10:04 43.81693 22.12928 33264 ft 498 kts 123°
2026-04-27 10:05 43.78006 22.21071 33260 ft 498 kts 123°
2026-04-27 10:05 43.74339 22.29146 33245 ft 499 kts 123°
2026-04-27 10:06 43.70648 22.37269 33258 ft 499 kts 122°
2026-04-27 10:06 43.67621 22.45899 33255 ft 500 kts 110°
2026-04-27 10:07 43.65578 22.55067 33258 ft 499 kts 107°
2026-04-27 10:07 43.63601 22.64268 33270 ft 499 kts 107°
2026-04-27 10:08 43.61587 22.73461 33271 ft 500 kts 107°
2026-04-27 10:08 43.59559 22.82580 33258 ft 499 kts 108°
2026-04-27 10:09 43.57507 22.91747 33265 ft 499 kts 108°
2026-04-27 10:09 43.55462 23.00845 33267 ft 499 kts 108°
2026-04-27 10:10 43.53398 23.09998 33265 ft 499 kts 108°
2026-04-27 10:10 43.51325 23.19153 33269 ft 499 kts 108°
2026-04-27 10:11 43.49249 23.28286 33276 ft 499 kts 108°
2026-04-27 10:11 43.47177 23.37360 33273 ft 500 kts 108°
2026-04-27 10:12 43.45083 23.46492 33263 ft 500 kts 108°
2026-04-27 10:12 43.42982 23.55617 33269 ft 500 kts 108°
2026-04-27 10:13 43.40873 23.64743 33261 ft 500 kts 108°
2026-04-27 10:13 43.38757 23.73853 33262 ft 500 kts 108°
2026-04-27 10:14 43.36632 23.82969 33269 ft 500 kts 108°
2026-04-27 10:14 43.34501 23.92075 33265 ft 500 kts 108°
2026-04-27 10:15 43.32376 24.01116 33263 ft 500 kts 109°
2026-04-27 10:15 43.30227 24.10221 33267 ft 500 kts 109°
2026-04-27 10:16 43.28077 24.19298 33258 ft 500 kts 109°
2026-04-27 10:16 43.25917 24.28378 33256 ft 500 kts 109°
2026-04-27 10:17 43.23750 24.37449 33255 ft 500 kts 109°
2026-04-27 10:17 43.21592 24.46449 33257 ft 500 kts 109°
2026-04-27 10:18 43.19401 24.55547 33260 ft 499 kts 109°
2026-04-27 10:18 43.17234 24.64516 33255 ft 499 kts 109°
2026-04-27 10:19 43.15047 24.73528 33248 ft 498 kts 109°
2026-04-27 10:19 43.12854 24.82528 33246 ft 498 kts 109°
2026-04-27 10:20 43.10654 24.91523 33247 ft 498 kts 109°
2026-04-27 10:20 43.08447 25.00509 33250 ft 498 kts 109°
2026-04-27 10:21 43.06247 25.09428 33253 ft 498 kts 109°
2026-04-27 10:21 43.04023 25.18415 33250 ft 499 kts 110°
2026-04-27 10:22 43.01790 25.27406 33253 ft 499 kts 110°
2026-04-27 10:22 42.99552 25.36378 33252 ft 499 kts 110°
2026-04-27 10:23 42.97303 25.45362 33248 ft 500 kts 110°
2026-04-27 10:23 42.95048 25.54333 33251 ft 499 kts 110°
2026-04-27 10:24 42.92783 25.63314 33246 ft 499 kts 110°
2026-04-27 10:24 42.90532 25.72201 33241 ft 499 kts 110°
2026-04-27 10:25 42.88256 25.81154 33255 ft 499 kts 110°
2026-04-27 10:25 42.85977 25.90082 33268 ft 499 kts 110°
2026-04-27 10:26 42.83691 25.99009 33276 ft 499 kts 110°
2026-04-27 10:26 42.81395 26.07936 33270 ft 499 kts 110°
2026-04-27 10:27 42.79091 26.16866 33268 ft 499 kts 110°
2026-04-27 10:27 42.76783 26.25774 33285 ft 499 kts 110°
2026-04-27 10:28 42.74484 26.34619 33286 ft 499 kts 110°
2026-04-27 10:28 42.72155 26.43540 33296 ft 499 kts 111°
2026-04-27 10:29 42.69827 26.52427 33294 ft 499 kts 111°
2026-04-27 10:29 42.67492 26.61307 33301 ft 499 kts 111°
2026-04-27 10:30 42.65144 26.70203 33301 ft 499 kts 111°
2026-04-27 10:30 42.62792 26.79085 33306 ft 500 kts 111°
2026-04-27 10:31 42.60432 26.87961 33313 ft 500 kts 111°
2026-04-27 10:31 42.58075 26.96792 33309 ft 500 kts 111°
2026-04-27 10:32 42.55699 27.05668 33312 ft 501 kts 111°
2026-04-27 10:32 42.53312 27.14547 33319 ft 501 kts 111°
2026-04-27 10:33 42.50920 27.23416 33318 ft 501 kts 111°
2026-04-27 10:33 42.48522 27.32274 33314 ft 500 kts 111°
2026-04-27 10:34 42.46117 27.41127 33327 ft 500 kts 111°
2026-04-27 10:34 42.44112 27.48480 33327 ft 500 kts 111°
2026-04-27 10:35 42.41302 27.58751 33329 ft 500 kts 111°
2026-04-27 10:35 42.38877 27.67581 33333 ft 500 kts 111°
2026-04-27 10:36 42.36854 27.74926 33327 ft 500 kts 111°
2026-04-27 10:36 42.34420 27.83730 33334 ft 500 kts 111°
2026-04-27 10:37 42.32003 27.92445 33335 ft 500 kts 112°
2026-04-27 10:37 42.29555 28.01239 33336 ft 500 kts 112°
2026-04-27 10:38 42.27100 28.10026 33332 ft 500 kts 112°
2026-04-27 10:38 42.24636 28.18815 33325 ft 500 kts 112°
2026-04-27 10:39 42.22180 28.27547 33330 ft 500 kts 112°
2026-04-27 10:39 42.19705 28.36315 33326 ft 501 kts 112°
2026-04-27 10:40 42.17220 28.45087 33320 ft 501 kts 112°
2026-04-27 10:40 42.14728 28.53854 33322 ft 501 kts 112°
2026-04-27 10:41 42.12227 28.62628 33322 ft 501 kts 112°
2026-04-27 10:41 42.09724 28.71378 33321 ft 501 kts 112°
2026-04-27 10:42 42.06811 28.79875 33320 ft 498 kts 123°
2026-04-27 10:42 42.03092 28.87726 33319 ft 498 kts 124°
2026-04-27 10:43 41.99338 28.95574 33321 ft 498 kts 124°
2026-04-27 10:43 41.95641 29.03373 33319 ft 498 kts 124°
2026-04-27 10:44 41.91925 29.11241 33312 ft 498 kts 124°
2026-04-27 10:44 41.88205 29.19108 33325 ft 498 kts 124°
2026-04-27 10:45 41.84490 29.26968 33322 ft 498 kts 124°
2026-04-27 10:45 41.80787 29.34800 33318 ft 497 kts 124°
2026-04-27 10:46 41.77100 29.42580 33297 ft 497 kts 124°
2026-04-27 10:46 41.73385 29.50397 33290 ft 497 kts 124°
2026-04-27 10:47 41.69667 29.58201 33295 ft 497 kts 124°
2026-04-27 10:47 41.65946 29.65987 33296 ft 497 kts 124°
2026-04-27 10:48 41.62219 29.73769 33295 ft 497 kts 124°
2026-04-27 10:48 41.58486 29.81542 33309 ft 497 kts 124°
2026-04-27 10:49 41.54772 29.89256 33309 ft 496 kts 124°
2026-04-27 10:49 41.51030 29.97007 33284 ft 496 kts 124°
2026-04-27 10:50 41.47289 30.04739 33313 ft 496 kts 124°
2026-04-27 10:50 41.43539 30.12468 33307 ft 496 kts 124°
2026-04-27 10:51 41.39779 30.20199 33309 ft 496 kts 124°
2026-04-27 10:51 41.36028 30.27893 33308 ft 495 kts 124°
2026-04-27 10:52 41.32285 30.35549 33306 ft 495 kts 124°
2026-04-27 10:52 41.28534 30.43204 33307 ft 494 kts 124°
2026-04-27 10:53 41.22889 30.54686 33302 ft 494 kts 124°
2026-04-27 10:54 41.19133 30.62303 33303 ft 493 kts 124°
2026-04-27 10:54 41.15369 30.69918 33299 ft 493 kts 124°
2026-04-27 10:55 41.11669 30.77386 33195 ft 479 kts 124°
2026-04-27 10:55 41.09857 30.81038 33079 ft 469 kts 124°
2026-04-27 10:55 41.08070 30.84634 32835 ft 464 kts 124°
2026-04-27 10:55 41.06304 30.88182 32548 ft 460 kts 124°
2026-04-27 10:56 41.04546 30.91710 32201 ft 457 kts 124°
2026-04-27 10:56 41.02796 30.95217 31788 ft 457 kts 125°
2026-04-27 10:56 41.01041 30.98732 31380 ft 456 kts 124°
2026-04-27 10:56 40.99319 31.02175 31101 ft 452 kts 124°
2026-04-27 10:57 40.97565 31.05679 30829 ft 448 kts 125°
2026-04-27 10:57 40.95848 31.09106 30442 ft 448 kts 124°
2026-04-27 10:57 40.94127 31.12538 29959 ft 448 kts 124°
2026-04-27 10:57 40.92403 31.15970 29547 ft 448 kts 124°
2026-04-27 10:58 40.90702 31.19354 29099 ft 447 kts 124°
2026-04-27 10:58 40.88989 31.22758 28813 ft 443 kts 124°
2026-04-27 10:58 40.87277 31.26155 28444 ft 443 kts 125°
2026-04-27 10:58 40.85582 31.29516 28289 ft 435 kts 124°
2026-04-27 10:59 40.83914 31.32820 28109 ft 429 kts 124°
2026-04-27 10:59 40.82259 31.36095 27887 ft 426 kts 124°
2026-04-27 10:59 40.80620 31.39335 27528 ft 424 kts 124°
2026-04-27 11:00 40.77341 31.45806 26849 ft 422 kts 124°
2026-04-27 11:00 40.75712 31.49016 26555 ft 420 kts 124°
2026-04-27 11:00 40.74090 31.52208 26285 ft 418 kts 124°
2026-04-27 11:00 40.72474 31.55384 26015 ft 416 kts 124°
2026-04-27 11:01 40.70868 31.58541 25721 ft 414 kts 124°
2026-04-27 11:01 40.69263 31.61690 25450 ft 412 kts 124°
2026-04-27 11:01 40.67663 31.64827 25162 ft 411 kts 124°
2026-04-27 11:01 40.66069 31.67948 24856 ft 409 kts 124°
2026-04-27 11:02 40.64488 31.71043 24461 ft 406 kts 124°
2026-04-27 11:02 40.62914 31.74120 24075 ft 404 kts 124°
2026-04-27 11:02 40.61351 31.77174 23649 ft 402 kts 124°
2026-04-27 11:02 40.59812 31.80177 23193 ft 400 kts 124°
2026-04-27 11:03 40.58256 31.83208 22766 ft 397 kts 123°
2026-04-27 11:03 40.56711 31.86209 22326 ft 394 kts 123°
2026-04-27 11:03 40.55173 31.89189 21933 ft 392 kts 123°
2026-04-27 11:03 40.53644 31.92149 21535 ft 389 kts 123°
2026-04-27 11:04 40.52129 31.95078 21122 ft 386 kts 123°
2026-04-27 11:04 40.50639 31.97959 20742 ft 384 kts 123°
2026-04-27 11:04 40.49140 32.00856 20349 ft 382 kts 122°
2026-04-27 11:04 40.47651 32.03732 19964 ft 379 kts 123°
2026-04-27 11:05 40.46171 32.06590 19561 ft 377 kts 123°
2026-04-27 11:05 40.44698 32.09429 19159 ft 375 kts 123°
2026-04-27 11:05 40.43235 32.12244 18771 ft 373 kts 123°
2026-04-27 11:05 40.41796 32.15057 18370 ft 369 kts 119°
2026-04-27 11:06 40.40681 32.18062 17935 ft 364 kts 110°
2026-04-27 11:06 40.39805 32.21168 17527 ft 361 kts 108°
2026-04-27 11:06 40.38972 32.24250 17128 ft 357 kts 108°
2026-04-27 11:06 40.38120 32.27256 16749 ft 354 kts 109°
2026-04-27 11:07 40.37229 32.30265 16365 ft 351 kts 110°
2026-04-27 11:07 40.36336 32.33229 15993 ft 348 kts 110°
2026-04-27 11:07 40.35521 32.36194 15616 ft 344 kts 105°
2026-04-27 11:07 40.34915 32.39211 15250 ft 341 kts 102°
2026-04-27 11:08 40.34375 32.42225 14885 ft 338 kts 101°
2026-04-27 11:08 40.33835 32.45213 14523 ft 335 kts 102°
2026-04-27 11:08 40.33284 32.48178 14146 ft 333 kts 102°
2026-04-27 11:08 40.32724 32.51112 13780 ft 331 kts 102°
2026-04-27 11:09 40.32160 32.54027 13403 ft 329 kts 102°
2026-04-27 11:09 40.31596 32.56911 13032 ft 326 kts 102°
2026-04-27 11:09 40.31031 32.59784 12659 ft 324 kts 103°
2026-04-27 11:09 40.30464 32.62619 12303 ft 318 kts 105°
2026-04-27 11:10 40.29433 32.65144 11947 ft 316 kts 133°
2026-04-27 11:10 40.27695 32.66813 11610 ft 317 kts 156°
2026-04-27 11:10 40.25545 32.67563 11207 ft 326 kts 175°
2026-04-27 11:10 40.23262 32.67368 10804 ft 333 kts 194°
2026-04-27 11:11 40.21047 32.66519 10590 ft 329 kts 197°
2026-04-27 11:11 40.18874 32.65678 10376 ft 319 kts 197°
2026-04-27 11:11 40.16821 32.64931 10170 ft 293 kts 195°
2026-04-27 11:11 40.14916 32.64264 10047 ft 276 kts 195°
2026-04-27 11:12 40.13089 32.63627 9892 ft 271 kts 195°
2026-04-27 11:12 40.11234 32.62984 9593 ft 280 kts 193°
2026-04-27 11:12 40.09299 32.62940 9260 ft 280 kts 160°
2026-04-27 11:12 40.07682 32.64205 9201 ft 267 kts 130°
2026-04-27 11:13 40.06699 32.66163 9071 ft 252 kts 110°
2026-04-27 11:13 40.06188 32.68286 8740 ft 245 kts 101°
2026-04-27 11:13 40.05804 32.70416 8464 ft 237 kts 100°
2026-04-27 11:13 40.05430 32.72473 8180 ft 229 kts 108°
2026-04-27 11:14 40.04598 32.74228 7940 ft 228 kts 128°
2026-04-27 11:14 40.03600 32.75871 7765 ft 231 kts 125°
2026-04-27 11:14 40.02651 32.77549 7410 ft 225 kts 125°
2026-04-27 11:14 40.01756 32.79145 7149 ft 210 kts 124°
2026-04-27 11:15 40.00910 32.80656 6884 ft 202 kts 124°
2026-04-27 11:15 40.00092 32.82118 6648 ft 202 kts 123°
2026-04-27 11:15 39.99262 32.83617 6409 ft 202 kts 120°
2026-04-27 11:15 39.98913 32.85320 6177 ft 192 kts 79°
2026-04-27 11:16 39.99487 32.86865 6039 ft 190 kts 43°
2026-04-27 11:16 40.00507 32.87893 5791 ft 184 kts 34°
2026-04-27 11:16 40.01520 32.88870 5559 ft 175 kts 34°
2026-04-27 11:16 40.02453 32.89761 5340 ft 158 kts 34°
2026-04-27 11:17 40.03332 32.90597 5123 ft 159 kts 34°
2026-04-27 11:17 40.04245 32.91467 4926 ft 164 kts 32°
2026-04-27 11:17 40.05167 32.92348 4720 ft 164 kts 34°
2026-04-27 11:17 40.06072 32.93212 4497 ft 162 kts 34°
2026-04-27 11:18 40.06977 32.94079 4289 ft 160 kts 33°
2026-04-27 11:18 40.07882 32.94948 4044 ft 161 kts 35°
2026-04-27 11:18 40.08774 32.95799 3802 ft 154 kts 35°
2026-04-27 11:18 40.09633 32.96618 3555 ft 152 kts 34°
2026-04-27 11:19 40.10472 32.97425 3397 ft 150 kts 35°
2026-04-27 11:19 40.11334 32.98250 3188 ft 155 kts 35°
2026-04-27 11:19 40.12174 32.99050 3123 ft 142 kts 36°
2026-04-27 11:19 40.12827 32.99674 3124 ft 90 kts 36°
2026-04-27 11:20 40.13187 33.00015 3130 ft 44 kts 36°
2026-04-27 11:20 40.13415 33.00234 3130 ft 38 kts 37°
2026-04-27 11:20 40.13614 33.00426 3134 ft 34 kts 36°
2026-04-27 11:20 40.13807 33.00610 3137 ft 37 kts 36°
2026-04-27 11:21 40.14030 33.00822 3140 ft 36 kts 36°
2026-04-27 11:21 40.14089 33.01019 3141 ft 24 kts 121°
2026-04-27 11:21 40.13947 33.01047 3140 ft 23 kts 209°
2026-04-27 11:21 40.13819 33.00928 3139 ft 23 kts 216°
2026-04-27 11:22 40.13691 33.00806 3137 ft 23 kts 216°
2026-04-27 11:22 40.13562 33.00683 3135 ft 23 kts 218°
2026-04-27 11:22 40.13434 33.00560 3133 ft 23 kts 216°
2026-04-27 11:22 40.13374 33.00503 3130 ft 12 kts 215°
2026-04-27 11:23 40.13324 33.00536 3131 ft 9 kts 120°
2026-04-27 11:23 40.13336 33.00611 3134 ft 9 kts 46°
2026-04-27 11:23 40.13391 33.00669 3133 ft 15 kts 37°
2026-04-27 11:23 40.13501 33.00773 3137 ft 20 kts 36°
2026-04-27 11:24 40.13614 33.00887 3138 ft 21 kts 54°
2026-04-27 11:24 40.13594 33.00964 3139 ft 5 kts 127°
2026-04-27 11:24 40.13586 33.00978 3139 ft 3 kts 128°
2026-04-27 11:24 40.13577 33.00995 3139 ft 0 kts 126°